SL-14 DEB, 45270

Orbit data source: Space-Track

SL-14 DEB, 45270 is space debris in LEO originally from a launch on Thu, 15 Aug 1991 UTC launched from the Plesetsk Missile And Space Complex (PKMTR). Debris objects in space refer to the collection of defunct objects orbiting the Earth. Examples of debris include non-operational satellites, rocket bodies, and fragments generated from explosions, collisions, or faulty payload assembly.

Loading next visibility...
Identifier
45270, 1991-056G
Orbit
LEO
Country
Flag of CISCIS
Related business
Manufacturer
Unknown
Mission
Spacecraft
Bus & Motor
Unknown
Mass
Unknown
Launch date (UTC)
1991-08-15 (34 years ago)
Launch vehicle
Unknown
Launch site
Plesetsk Missile And Space Complex (PKMTR)
Object type
Payload
Rocket body
Debris
Shape & HBR
Unknown
Radar Cross Section
Small (<0.1 m²)

Expand to show TLE details & history
Last TLE update: 21 hours ago

TLE from 21 hours ago
0 SL-14 DEB
1 45270U 91056G   25258.16955070  .00000110  00000-0  23330-3 0  9990
2 45270  82.5696 323.4160 0031887  19.8964 340.3397 13.22336185269706
Epoch: 2025-09-15T04:04Z
TLE epoch observation values (Epoch: 2025-09-15T04:04:09.18Z)
Latitude
-0.00001°
Longitude
-92.00031°
Altitude
1,155.947 km
Speed
7.286 km/s
True Right ascension
21h 33m 39s
True Declination
0° 00' 00"
Sunlit
Object was in full shadow at epoch
Visualization orbit readout
Latitude
Unknown
Longitude
Unknown
Altitude
Unknown
Speed
Unknown
Apparent Right ascension
Unknown
Apparent Declination
Unknown
Sunlit
N/A
Visualization observer readout
Local Sidereal Time
18:08:37
Azimuth
Unknown
Elevation
Unknown
Doppler factor
Unknown
Orbital elements
Apogee altitude
1,197.125 km
Perigee altitude
1,148.968 km
Semi-major axis
7,551.183 km
Eccentricity
0.00319
Inclination
82.5696°
RAAN
323.416°
Arg. of periapsis
19.8964°
True anomaly
340.2163°
Mean anomaly
340.3397°
Eccentric anomaly
340.27805°
Mean motion
3.30766 °/min
Orbital period
108.84 mins
BSTAR
0.0002333
Loading maneuver chart data...
Computing Atmospheric mass density...
Loading historical data...
Loading historical data...
Loading historical data...
Loading historical data...
Loading historical data...
Loading historical data...
Loading historical data...

Documentation

Showing up to 5 results
|